Vertical_Velocity
-1 -3 -3 -1 -1 1 2 2 1 0 2 2 3 2 2 2 2 1 1 -1 1 1 1 1 1 3 1 -0 -2 -0 0 0
-5 -0 2 1 4 5 5 4 4 5 2 0 1 0 3 3 2 1 -1 1 2 1 -0 2 3 2 3 1 1 -0 -1 2
8 5 2 1 0 1 2 1 1 1 3 3 1 1 -1 -0 1 -0 1 -1 -0 2 2 -1 -0 2 1 1 3 -1 1 1
8 -5 -5 0 3 3 3 2 2 1 1 1 3 2 1 1 1 2 2 2 1 0 1 3 2 -2 0 2 4 1 3 0
8 6 7 7 1 3 3 3 2 2 3 2 2 2 1 3 1 3 2 1 2 -0 1 1 1 3 -2 -2 2 2 0 1
1 11 8 5 8 15 8 19 9 3 2 3 1 2 4 4 4 -0 1 3 2 -0 0 2 2 -1 1 -0 -3 2 3 0
2 2 4 -4 -6 5 18 20 20 9 5 1 4 3 3 3 3 2 0 -1 2 2 -1 1 -0 -1 -2 0 1 2 1 2
-1 -5 0 2 0 3 5 0 10 24 26 16 0 2 5 5 1 1 1 -1 -2 -0 1 -2 -2 -2 1 -0 3 1 2 0
-1 8 -5 -9 -4 1 -1 -3 -0 9 27 27 24 27 28 15 7 2 5 4 1 -1 -1 -2 -2 -2 2 -0 1 -0 0 4
-6 3 0 -4 -8 0 -1 -2 7 -1 11 37 11 20 31 24 24 14 1 1 1 2 4 1 -1 -3 -1 3 -5 -5 1 2
1 -3 -1 -6 2 -6 -3 -1 4 1 19 20 38 -2 -21 -12 16 27 16 11 -2 -2 -3 2 2 -1 2 -3 -0 1 0 -4
-8 -4 -5 -1 -6 -4 -11 -8 3 4 1 6 11 3 200 -8 -12 11 12 1 5 14 7 5 1 4 -1 -0 -3 1 2 3
-7 -2 5 7 4 6 10 -0 -8 -1 11 8 12 5 12 17 8 1 -0 -3 4 3 8 9 2 1 18 2 3 0 4 -3
10 -2 -4 1 1 -2 -6 6 8 -3 3 10 6 9 2 13 12 -2 4 -1 3 -5 -0 4 0 -3 -1 13 4 1 12 7
8 10 1 4 7 3 -4 -6 4 5 1 7 3 4 6 5 4 2 -1 6 5 3 6 -1 4 -1 -8 -2 -8 -4 3 4
9 17 -3 -8 -4 2 0 1 1 8 -10 -7 0 -2 1 -4 -0 -0 -1 1 -10 3 26 18 8 -4 -5 1 -0 1 -13 -0
-0 -4 2 -2 0 -6 -5 -7 -7 -8 4 -5 -13 -3 -0 7 -6 -3 -0 -1 3 -4 5 -2 11 29 -5 -13 3 8 -6 -8
-6 -5 -4 1 -4 -8 -4 -2 -8 -11 -9 -2 2 -4 -3 -4 1 -2 1 -2 -4 2 2 -1 -22 5 23 -19 -1 -4 12 2
-8 -6 -7 -17 -18 -2 1 -5 -10 -7 -5 -5 -1 1 -2 -1 -4 -1 -1 4 -7 2 -4 4 4 -32 139 -6 -10 -1 1 6
-4 -4 -11 -9 -3 -3 2 -4 -18 -9 -5 1 -5 -7 2 0 -0 -4 -3 3 -1 -4 -1 6 -3 -14 -20 55 -19 1 4 7
Height
5870 5870 5870 5869 5867 5865 5863 5861 5859 5858 5856 5855 5855 5855 5855 5854 5854 5855 5854 5854 5854 5855 5854 5854 5853 5853 5853 5852 5853 5853 5853 5853
5868 5867 5867 5865 5863 5861 5859 5858 5856 5854 5853 5851 5850 5850 5849 5849 5849 5849 5849 5850 5849 5849 5850 5850 5849 5849 5849 5849 5849 5849 5849 5849
5869 5864 5861 5859 5857 5854 5853 5851 5850 5849 5847 5846 5845 5844 5842 5842 5842 5842 5842 5843 5844 5844 5844 5844 5845 5844 5844 5844 5844 5844 5844 5844
5858 5856 5856 5853 5850 5847 5845 5844 5843 5841 5839 5838 5837 5837 5835 5834 5834 5834 5835 5836 5837 5837 5837 5838 5838 5839 5839 5838 5839 5839 5839 5839
5849 5848 5846 5846 5843 5841 5839 5836 5835 5833 5831 5829 5827 5827 5826 5826 5826 5825 5826 5827 5828 5828 5829 5830 5831 5831 5832 5833 5833 5833 5833 5832
5840 5840 5839 5836 5834 5832 5829 5828 5826 5824 5822 5820 5818 5816 5817 5816 5816 5816 5816 5816 5818 5819 5820 5820 5822 5823 5823 5825 5826 5826 5826 5825
5831 5831 5830 5827 5825 5821 5819 5818 5816 5812 5810 5807 5808 5808 5807 5806 5807 5807 5807 5807 5807 5809 5810 5811 5812 5812 5813 5815 5816 5817 5817 5817
5823 5820 5820 5818 5813 5811 5809 5807 5805 5803 5799 5794 5790 5793 5795 5796 5796 5797 5798 5798 5798 5798 5798 5800 5801 5802 5804 5805 5807 5807 5807 5807
5815 5814 5810 5808 5805 5802 5798 5797 5794 5792 5788 5782 5780 5778 5779 5781 5783 5785 5788 5788 5788 5789 5790 5790 5791 5792 5795 5795 5795 5796 5796 5797
5807 5805 5802 5797 5795 5794 5791 5787 5785 5779 5775 5770 5768 5767 5765 5764 5766 5771 5775 5775 5777 5778 5780 5780 5782 5783 5785 5786 5786 5787 5786 5788
5801 5800 5797 5793 5786 5784 5782 5780 5776 5769 5762 5760 5731 5752 5754 5749 5751 5754 5756 5761 5764 5767 5769 5769 5771 5774 5774 5774 5775 5776 5777 5777
5792 5789 5786 5784 5781 5774 5771 5767 5764 5758 5749 5744 5745 5741 5723 5732 5741 5740 5740 5746 5750 5754 5757 5758 5760 5762 5763 5764 5765 5765 5767 5768
5780 5778 5775 5773 5770 5765 5757 5753 5749 5746 5741 5732 5727 5729 5728 5724 5726 5732 5733 5734 5738 5740 5742 5742 5747 5749 5748 5750 5753 5754 5755 5757
5770 5767 5763 5758 5754 5750 5743 5736 5733 5729 5727 5722 5716 5711 5711 5713 5713 5717 5720 5724 5726 5727 5729 5732 5734 5736 5737 5737 5737 5741 5744 5749
5758 5753 5748 5741 5735 5729 5724 5719 5713 5710 5709 5707 5702 5698 5694 5693 5696 5702 5704 5704 5709 5712 5714 5716 5719 5722 5721 5723 5721 5727 5734 5735
5742 5734 5727 5720 5712 5707 5701 5699 5695 5690 5689 5687 5685 5680 5678 5675 5678 5680 5687 5687 5689 5693 5693 5694 5697 5700 5704 5706 5709 5711 5716 5721
5722 5712 5706 5702 5693 5685 5681 5677 5674 5670 5668 5669 5665 5663 5660 5660 5660 5663 5664 5669 5672 5674 5675 5672 5676 5677 5675 5687 5691 5694 5698 5702
5705 5696 5687 5681 5679 5670 5665 5661 5655 5651 5649 5650 5650 5649 5647 5644 5644 5647 5647 5649 5652 5654 5655 5655 5657 5657 5655 5666 5671 5676 5681 5684
5690 5681 5671 5663 5657 5652 5645 5642 5637 5633 5631 5629 5627 5630 5630 5630 5631 5632 5632 5631 5634 5637 5638 5639 5640 5643 5628 5652 5654 5658 5661 5665
5672 5662 5652 5646 5637 5631 5619 5613 5610 5612 5609 5607 5607 5606 5611 5612 5614 5617 5618 5618 5618 5621 5621 5622 5624 5625 5626 5635 5638 5641 5644 5645